Time,TemperatureF,DewpointF,PressureIn,WindDirection,WindDirectionDegrees,WindSpeedMPH,WindSpeedGustMPH,Humidity,HourlyPrecipIn,Conditions,Clouds,dailyrainin,SoftwareType,DateUTC
2013-06-22 07:00:00,56.0,-99.9,-100.00,North,352,1.0,-999.0,-999,-99.99,,,-99.99,,2013-06-22 14:00:00,
2013-06-22 08:00:00,63.0,-99.9,-100.00,NNW,345,2.0,-999.0,-999,-99.99,,,-99.99,,2013-06-22 15:00:00,
2013-06-22 09:00:00,67.0,-99.9,-100.00,NNW,331,2.0,-999.0,-999,-99.99,,,-99.99,,2013-06-22 16:00:00,
2013-06-22 10:00:00,65.0,-99.9,-100.00,South,189,3.0,-999.0,-999,-99.99,,,-99.99,,2013-06-22 17:00:00,
2013-06-22 10:52:00,65.0,-99.9,-100.00,South,189,3.0,-999.0,-999,-99.99,,,-99.99,,2013-06-22 17:52:00,
2013-06-22 11:00:00,70.0,-99.9,-100.00,NNW,347,2.0,-999.0,-999,-99.99,,,-99.99,,2013-06-22 18:00:00,
2013-06-22 11:52:00,70.0,-99.9,-100.00,NNW,347,2.0,-999.0,-999,-99.99,,,-99.99,,2013-06-22 18:52:00,
2013-06-22 12:00:00,72.0,-99.9,-100.00,SSE,168,2.0,-999.0,-999,-99.99,,,-99.99,,2013-06-22 19:00:00,
2013-06-22 13:00:00,74.0,-99.9,-100.00,North,356,3.0,-999.0,-999,-99.99,,,-99.99,,2013-06-22 20:00:00,
2013-06-22 14:00:00,75.0,-99.9,-100.00,NNW,346,3.0,-999.0,-999,-99.99,,,-99.99,,2013-06-22 21:00:00,
2013-06-22 14:53:00,75.0,-99.9,-100.00,NNW,346,3.0,-999.0,-999,-99.99,,,-99.99,,2013-06-22 21:53:00,
2013-06-22 15:00:00,75.0,-99.9,-100.00,NNW,342,3.0,-999.0,-999,-99.99,,,-99.99,,2013-06-22 22:00:00,
2013-06-22 15:52:00,75.0,-99.9,-100.00,NNW,342,3.0,-999.0,-999,-99.99,,,-99.99,,2013-06-22 22:52:00,
2013-06-22 16:00:00,74.0,-99.9,-100.00,NW,323,3.0,-999.0,-999,-99.99,,,-99.99,,2013-06-22 23:00:00,
2013-06-22 17:00:00,74.0,-99.9,-100.00,NNW,330,3.0,-999.0,-999,-99.99,,,-99.99,,2013-06-23 00:00:00,
2013-06-22 17:53:00,74.0,-99.9,-100.00,NNW,330,3.0,-999.0,-999,-99.99,,,-99.99,,2013-06-23 00:53:00,
2013-06-22 18:00:00,75.0,-99.9,-100.00,South,171,3.0,-999.0,-999,-99.99,,,-99.99,,2013-06-23 01:00:00,
2013-06-22 18:53:00,75.0,-99.9,-100.00,South,171,3.0,-999.0,-999,-99.99,,,-99.99,,2013-06-23 01:53:00,
2013-06-22 19:00:00,75.0,-99.9,-100.00,NW,321,3.0,-999.0,-999,-99.99,,,-99.99,,2013-06-23 02:00:00,
2013-06-22 19:52:00,75.0,-99.9,-100.00,NW,321,3.0,-999.0,-999,-99.99,,,-99.99,,2013-06-23 02:52:00,
2013-06-22 20:00:00,75.0,-99.9,-100.00,NNW,336,2.0,-999.0,-999,-99.99,,,-99.99,,2013-06-23 03:00:00,
2013-06-22 20:52:00,75.0,-99.9,-100.00,NNW,336,2.0,-999.0,-999,-99.99,,,-99.99,,2013-06-23 03:52:00,
2013-06-22 21:00:00,72.0,-99.9,-100.00,NNW,335,5.0,-999.0,-999,-99.99,,,-99.99,,2013-06-23 04:00:00,
2013-06-22 21:52:00,72.0,-99.9,-100.00,NNW,335,5.0,-999.0,-999,-99.99,,,-99.99,,2013-06-23 04:52:00,
2013-06-22 22:00:00,68.0,-99.9,-100.00,NNW,332,3.0,-999.0,-999,-99.99,,,-99.99,,2013-06-23 05:00:00,
2013-06-22 23:00:00,66.0,-99.9,-100.00,NNW,336,3.0,-999.0,-999,-99.99,,,-99.99,,2013-06-23 06:00:00,
2013-06-22 23:52:00,66.0,-99.9,-100.00,NNW,336,3.0,-999.0,-999,-99.99,,,-99.99,,2013-06-23 06:52:00,